When you browse on this site, cookies collect data to enhance your experience and personalize the content and advertising you see.
Visit our Privacy Policy to learn more. By continuing to use the site, you agree to this use of cookies and data.
  • In Hungary
  • List of Countries
  • For 7 days
  • Water Temperature
  • Weather Map
  • News
  • Weather Widgets
  • user-avatar
    Login

    Hourly Weather Horizonte

    Today, 13 November, Wednesday

    Time Temperature Precipitation Wind Pressure Humidity
    00:00 +26°C° 0 mm 3 mps 751 mmHg 83%
    01:00 +26°C° 0 mm 3 mps 751 mmHg 82%
    02:00 +26°C° 0 mm 4 mps 750 mmHg 81%
    03:00 +26°C° 0 mm 4 mps 750 mmHg 80%
    04:00 +26°C° 0 mm 4 mps 751 mmHg 79%
    05:00 +26°C° 0 mm 4 mps 751 mmHg 77%
    06:00 +25°C° 0 mm 4 mps 752 mmHg 75%
    07:00 +28°C° 0 mm 4 mps 752 mmHg 66%
    08:00 +30°C° 0 mm 4 mps 752 mmHg 57%
    09:00 +33°C° 0 mm 5 mps 753 mmHg 49%
    10:00 +34°C° 0 mm 5 mps 752 mmHg 45%
    11:00 +35°C° 0 mm 5 mps 752 mmHg 42%
    12:00 +36°C° 0 mm 5 mps 752 mmHg 39%
    13:00 +36°C° 0 mm 5 mps 751 mmHg 41%
    14:00 +35°C° 0 mm 5 mps 750 mmHg 43%
    15:00 +35°C° 0 mm 5 mps 749 mmHg 45%
    16:00 +33°C° 0 mm 5 mps 749 mmHg 55%
    17:00 +29°C° 0 mm 4 mps 750 mmHg 65%
    18:00 +27°C° 0 mm 3 mps 750 mmHg 75%
    19:00 +27°C° 0 mm 3 mps 751 mmHg 79%
    20:00 +27°C° 0 mm 3 mps 751 mmHg 83%
    21:00 +26°C° 0 mm 3 mps 752 mmHg 86%
    22:00 +26°C° 0 mm 3 mps 752 mmHg 86%
    23:00 +26°C° 0 mm 3 mps 751 mmHg 86%

    Tomorrow, 14 November, Thursday

    Time Temperature Precipitation Wind Pressure Humidity
    00:00 +27°C° 0 mm 3 mps 751 mmHg 86%
    01:00 +27°C° 0 mm 3 mps 751 mmHg 84%
    02:00 +27°C° 0 mm 3 mps 751 mmHg 81%
    03:00 +27°C° 0 mm 3 mps 751 mmHg 79%
    04:00 +27°C° 0.1 mm 3 mps 751 mmHg 80%
    05:00 +26°C° 0.1 mm 3 mps 752 mmHg 81%
    06:00 +26°C° 0.1 mm 3 mps 752 mmHg 81%
    07:00 +28°C° 0 mm 4 mps 752 mmHg 72%
    08:00 +30°C° 0 mm 4 mps 753 mmHg 63%
    09:00 +32°C° 0 mm 4 mps 753 mmHg 54%
    10:00 +34°C° 0 mm 5 mps 753 mmHg 50%
    11:00 +35°C° 0 mm 5 mps 752 mmHg 47%
    12:00 +36°C° 0 mm 5 mps 751 mmHg 43%
    13:00 +35°C° 0 mm 5 mps 751 mmHg 46%
    14:00 +35°C° 0 mm 5 mps 750 mmHg 48%
    15:00 +34°C° 0 mm 6 mps 750 mmHg 51%
    16:00 +32°C° 0 mm 5 mps 750 mmHg 59%
    17:00 +29°C° 0 mm 4 mps 750 mmHg 67%
    18:00 +27°C° 0 mm 3 mps 750 mmHg 76%
    19:00 +27°C° 0 mm 3 mps 751 mmHg 79%
    20:00 +27°C° 0 mm 3 mps 751 mmHg 83%
    21:00 +26°C° 0 mm 3 mps 752 mmHg 87%
    22:00 +27°C° 0 mm 3 mps 751 mmHg 85%
    23:00 +27°C° 0 mm 3 mps 751 mmHg 84%

    Day after tomorrow, 15 November, Friday

    Time Temperature Precipitation Wind Pressure Humidity
    00:00 +27°C° 0 mm 3 mps 751 mmHg 82%
    01:00 +27°C° 0 mm 3 mps 751 mmHg 80%
    02:00 +27°C° 0 mm 3 mps 751 mmHg 79%
    03:00 +27°C° 0 mm 3 mps 750 mmHg 77%
    04:00 +27°C° 0 mm 3 mps 751 mmHg 77%
    05:00 +27°C° 0 mm 4 mps 751 mmHg 77%
    06:00 +27°C° 0 mm 4 mps 751 mmHg 77%
    07:00 +29°C° 0.1 mm 4 mps 752 mmHg 70%
    08:00 +30°C° 0.1 mm 4 mps 752 mmHg 63%
    09:00 +32°C° 0.1 mm 4 mps 752 mmHg 57%
    10:00 +33°C° 0 mm 4 mps 752 mmHg 53%
    11:00 +34°C° 0 mm 4 mps 751 mmHg 50%
    12:00 +35°C° 0 mm 4 mps 751 mmHg 46%
    13:00 +35°C° 0 mm 4 mps 750 mmHg 47%
    14:00 +35°C° 0 mm 5 mps 749 mmHg 48%
    15:00 +35°C° 0 mm 5 mps 749 mmHg 48%
    16:00 +33°C° 0 mm 5 mps 749 mmHg 57%
    17:00 +30°C° 0 mm 4 mps 749 mmHg 67%
    18:00 +27°C° 0 mm 3 mps 749 mmHg 76%
    19:00 +27°C° 0 mm 3 mps 749 mmHg 80%
    20:00 +26°C° 0 mm 3 mps 750 mmHg 84%
    21:00 +26°C° 0 mm 3 mps 750 mmHg 88%
    22:00 +26°C° 0 mm 3 mps 750 mmHg 88%
    23:00 +26°C° 0 mm 2 mps 750 mmHg 88%

    16 November, Saturday

    Time Temperature Precipitation Wind Pressure Humidity
    00:00 +26°C° 0 mm 2 mps 749 mmHg 87%
    01:00 +26°C° 0 mm 2 mps 749 mmHg 85%
    02:00 +27°C° 0 mm 2 mps 749 mmHg 82%
    03:00 +27°C° 0 mm 3 mps 748 mmHg 80%
    04:00 +27°C° 0 mm 3 mps 749 mmHg 78%
    05:00 +27°C° 0 mm 3 mps 750 mmHg 75%
    06:00 +28°C° 0 mm 3 mps 750 mmHg 73%
    07:00 +29°C° 0 mm 3 mps 751 mmHg 68%
    08:00 +30°C° 0 mm 4 mps 751 mmHg 63%
    09:00 +32°C° 0 mm 4 mps 751 mmHg 58%
    10:00 +33°C° 0 mm 4 mps 751 mmHg 54%
    11:00 +34°C° 0 mm 4 mps 750 mmHg 49%
    12:00 +36°C° 0 mm 4 mps 750 mmHg 45%
    13:00 +35°C° 0 mm 5 mps 749 mmHg 46%
    14:00 +35°C° 0 mm 5 mps 748 mmHg 48%
    15:00 +34°C° 0 mm 5 mps 748 mmHg 49%
    16:00 +32°C° 0 mm 4 mps 748 mmHg 58%
    17:00 +29°C° 0 mm 4 mps 748 mmHg 67%
    18:00 +28°C° 0 mm 3 mps 748 mmHg 76%
    19:00 +27°C° 0 mm 3 mps 749 mmHg 79%
    20:00 +27°C° 0 mm 3 mps 749 mmHg 83%
    21:00 +26°C° 0 mm 3 mps 750 mmHg 87%
    22:00 +26°C° 0 mm 2 mps 749 mmHg 86%
    23:00 +27°C° 0 mm 2 mps 749 mmHg 85%

    17 November, Sunday

    Time Temperature Precipitation Wind Pressure Humidity
    00:00 +27°C° 0 mm 2 mps 749 mmHg 84%
    01:00 +26°C° 0 mm 2 mps 749 mmHg 85%
    02:00 +26°C° 0 mm 2 mps 749 mmHg 85%
    03:00 +26°C° 0 mm 2 mps 748 mmHg 86%
    04:00 +26°C° 0 mm 2 mps 749 mmHg 83%
    05:00 +27°C° 0 mm 2 mps 750 mmHg 79%
    06:00 +27°C° 0 mm 2 mps 750 mmHg 76%
    07:00 +29°C° 0 mm 3 mps 751 mmHg 69%
    08:00 +30°C° 0 mm 3 mps 751 mmHg 63%
    09:00 +32°C° 0 mm 4 mps 752 mmHg 56%
    10:00 +33°C° 0 mm 4 mps 751 mmHg 52%
    11:00 +35°C° 0 mm 5 mps 751 mmHg 48%
    12:00 +36°C° 0 mm 5 mps 750 mmHg 43%
    13:00 +35°C° 0 mm 5 mps 750 mmHg 45%
    14:00 +35°C° 0 mm 5 mps 749 mmHg 47%
    15:00 +34°C° 0 mm 5 mps 748 mmHg 49%
    16:00 +32°C° 0 mm 4 mps 748 mmHg 59%
    17:00 +29°C° 0 mm 3 mps 749 mmHg 69%
    18:00 +27°C° 0 mm 2 mps 749 mmHg 78%
    19:00 +27°C° 0 mm 2 mps 749 mmHg 81%
    20:00 +27°C° 0 mm 2 mps 750 mmHg 84%
    21:00 +26°C° 0 mm 2 mps 751 mmHg 87%
    22:00 +26°C° 0 mm 2 mps 750 mmHg 87%
    23:00 +26°C° 0 mm 2 mps 750 mmHg 87%

    18 November, Monday

    Time Temperature Precipitation Wind Pressure Humidity
    00:00 +26°C° 0 mm 2 mps 750 mmHg 87%
    01:00 +26°C° 0 mm 2 mps 750 mmHg 86%
    02:00 +27°C° 0 mm 2 mps 750 mmHg 85%
    03:00 +27°C° 0 mm 2 mps 750 mmHg 84%
    04:00 +27°C° 0 mm 2 mps 750 mmHg 81%
    05:00 +27°C° 0 mm 2 mps 751 mmHg 78%
    06:00 +28°C° 0 mm 2 mps 752 mmHg 75%
    07:00 +29°C° 0 mm 2 mps 752 mmHg 70%
    08:00 +30°C° 0 mm 3 mps 752 mmHg 64%
    09:00 +31°C° 0 mm 3 mps 753 mmHg 59%
    10:00 +33°C° 0 mm 4 mps 752 mmHg 54%
    11:00 +35°C° 0 mm 4 mps 752 mmHg 50%
    12:00 +36°C° 0 mm 5 mps 752 mmHg 45%
    13:00 +36°C° 0 mm 5 mps 751 mmHg 46%
    14:00 +35°C° 0 mm 5 mps 750 mmHg 47%
    15:00 +35°C° 0 mm 5 mps 750 mmHg 49%
    16:00 +33°C° 0 mm 4 mps 750 mmHg 58%
    17:00 +30°C° 0 mm 4 mps 750 mmHg 68%
    18:00 +28°C° 0 mm 3 mps 751 mmHg 78%
    19:00 +28°C° 0 mm 3 mps 751 mmHg 80%
    20:00 +27°C° 0 mm 2 mps 751 mmHg 83%
    21:00 +27°C° 0 mm 2 mps 752 mmHg 86%
    22:00 +27°C° 0 mm 2 mps 752 mmHg 86%
    23:00 +27°C° 0 mm 2 mps 752 mmHg 87%
    Show more